Station PACT2 - 8775792 - Packery Channel, TX Image indicating link to RSS feed of recent meteorological observations for station PACT2


Conditions at PACT2 as of
(5:00 am CDT)
1000 GMT on 04/14/2024:
     

Click on the graph icon in the table below to see a time series plot of the last five days of that observation.

5-day plot - Wind Direction Wind Direction (WDIR):ESE ( 120 deg true )
5-day plot - Wind Speed Wind Speed (WSPD): 9.9 kts
5-day plot - Wind Gust Wind Gust (GST): 13.0 kts
5-day plot - Air Temperature Air Temperature (ATMP): 72.3 °F
5-day plot - Wind Speed at 10 Meters Wind Speed at 10 meters (WSPD10M): 9.7 kts
5-day plot - Wind Speed at 20 Meters Wind Speed at 20 meters (WSPD20M): 11.7 kts
5-day plot -  Wind Speed, Wind Gust and Atmospheric Pressure Combined plot of Wind Speed, Gust, and Air Pressure
Previous observations
TIME
(CDT)
5-day plot - Wind Direction
WDIR
 
5-day plot - Wind Speed
WSPD
kts
5-day plot - Wind Gust
GST
kts
5-day plot - Wave Height
WVHT
ft
5-day plot - Dominant Wave Period
DPD
sec
5-day plot - Average Wave Period
APD
sec
5-day plot - Mean Wave Direction
MWD
 
5-day plot - Atmospheric Pressure
PRES
in
5-day plot - Pressure Tendency
PTDY
in
5-day plot - Air Temperature
ATMP
°F
5-day plot - Water Temperature
WTMP
°F
5-day plot - Dew Point
DEWP
°F
5-day plot - Salinity
SAL
psu
5-day plot - Visibility
VIS
nmi
5-day plot - Tide (above MLLW)
TIDE
ft
2024-04-14 04:54 amESE 9.9 14.0------ 72.3-----
2024-04-14 04:48 am SE 12.0 17.1------ 72.3 74.5----
2024-04-14 04:42 am SE 12.0 15.9------ 72.3 74.5----
2024-04-14 04:36 am SE 12.0 14.0------ 72.3 74.5----
2024-04-14 04:30 amESE 11.1 14.0----30.00-- 74.5----
2024-04-14 04:24 am SE 12.0 15.9----30.00-- 74.5----
2024-04-14 04:18 am SE 12.0 15.0----30.01- 72.3 74.5----
2024-04-14 04:12 am SE 11.1 15.0----30.01- 72.3 74.5----
2024-04-14 04:06 am SE 11.1 14.0----30.01- 72.3 74.5----
2024-04-14 04:00 am SE 9.9 13.0----30.01-0.04 72.3 74.5----
2024-04-14 03:54 am SE 8.9 13.0----30.02- 72.1 74.5----
2024-04-14 03:48 am SE 9.9 13.0----30.02- 72.1 74.5----
2024-04-14 03:42 am SE 9.9 15.9----30.02- 72.3 74.5----
2024-04-14 03:36 am SE 9.9 14.0----30.02- 72.1 74.7----
2024-04-14 03:30 am SE 9.9 15.0----30.02- 72.1 74.7----
2024-04-14 03:24 am SE 8.9 12.0----30.02- 72.0 74.7----
2024-04-14 03:18 am SE 9.9 14.0----30.03- 72.0 74.7----
2024-04-14 03:12 am SE 9.9 14.0----30.03- 72.0 74.8----
2024-04-14 03:06 am SE 9.9 13.0----30.03- 72.0 74.8----
2024-04-14 03:00 am SE 8.9 13.0----30.03-0.04 72.0 74.8----
2024-04-14 02:54 am SE 11.1 14.0----30.03- 72.1 74.8----
2024-04-14 02:48 am SE 9.9 13.0----30.03- 72.0 74.8----
2024-04-14 02:42 am SE 8.9 13.0----30.03- 72.0 74.8----
2024-04-14 02:36 am SE 9.9 13.0----30.04- 72.1 75.0----
2024-04-14 02:30 am SE 8.9 12.0----30.04- 72.0 75.0----
2024-04-14 02:24 am SE 9.9 14.0----30.04- 72.1 75.0----
2024-04-14 02:18 am SE 8.9 15.0----30.04- 72.0 75.2----
2024-04-14 02:12 am SE 12.0 15.0----30.04- 72.1 75.2----
2024-04-14 02:06 am SE 12.0 15.0----30.04- 72.1 75.2----
2024-04-14 02:00 am SE 12.0 15.9----30.04-0.03 72.1 75.2----
2024-04-14 01:54 am SE 8.9 17.1----30.05- 72.1 75.2----
2024-04-14 01:48 am SE 9.9 13.0----30.05- 72.1 75.2----
2024-04-14 01:42 am SE 8.9 13.0----30.04- 72.1 75.4----
2024-04-14 01:36 am SE 11.1 15.9----30.04- 72.1 75.4----
2024-04-14 01:30 am SE 11.1 15.9----30.05- 72.3 75.4----
2024-04-14 01:24 am SE 9.9 15.0----30.05- 72.1 75.4----
2024-04-14 01:18 am SE 9.9 15.0----30.05- 72.1 75.4----
2024-04-14 01:12 am SE 9.9 14.0----30.05- 72.1 75.4----
2024-04-14 01:06 am SE 9.9 14.0----30.05- 72.1 75.4----
2024-04-14 01:00 am SE 9.9 15.9----30.06-0.03 72.3 75.4----
2024-04-14 12:54 am SE 11.1 13.0----30.06- 72.3 75.4----
2024-04-14 12:48 am SE 8.9 15.0----30.06- 72.3 75.6----
2024-04-14 12:42 am SE 9.9 15.0----30.06- 72.3 75.6----
2024-04-14 12:36 am SE 12.0 17.1----30.06- 72.3 75.6----
2024-04-14 12:30 am SE 12.0 15.9----30.06- 72.3 75.6----
2024-04-14 12:24 am SE 12.0 18.1----30.06- 72.3 75.6----
2024-04-14 12:18 am SE 11.1 15.0----30.06- 72.3 75.6----
2024-04-14 12:12 am SE 9.9 15.0----30.06- 72.3 75.7----
2024-04-14 12:06 am SE 11.1 15.0----30.07- 72.5 75.7----
2024-04-14 12:00 am SE 12.0 17.1----30.07-0.01 72.5 75.7----
2024-04-13 11:54 pm SE 12.0 15.0----30.07- 72.5 75.7----
2024-04-13 11:48 pm SE 9.9 17.1----30.07- 72.5 75.7----
2024-04-13 11:42 pm SE 11.1 15.0----30.07- 72.5 75.9----
2024-04-13 11:36 pm SE 11.1 17.1----30.07- 72.5 75.9----
2024-04-13 11:30 pm SE 12.0 17.1----30.07- 72.5 75.9----
2024-04-13 11:24 pm SE 13.0 19.0----30.07- 72.5 75.9----
2024-04-13 11:18 pm SE 13.0 19.0----30.07- 72.7 76.1----
2024-04-13 11:12 pm SE 13.0 18.1----30.07- 72.7 76.1----
2024-04-13 11:06 pm SE 12.0 17.1----30.07- 72.7 76.1----
2024-04-13 11:00 pm SE 13.0 15.9----30.08+0.00 72.7 76.1----
2024-04-13 10:54 pmESE 13.0 17.1----30.08- 72.7 76.3----
2024-04-13 10:48 pm SE 13.0 19.0----30.08- 72.7 76.3----
2024-04-13 10:42 pm SE 13.0 15.9----30.08- 72.7 76.3----
2024-04-13 10:36 pm SE 12.0 15.9----30.09- 72.7 76.3----
2024-04-13 10:30 pm SE 13.0 15.9----30.09- 72.7 76.3----
2024-04-13 10:24 pm SE 12.0 17.1----30.09- 72.7 76.3----
2024-04-13 10:18 pm SE 12.0 15.0----30.09- 72.7 76.5----
2024-04-13 10:12 pm SE 12.0 15.0----30.09- 72.7 76.5----
2024-04-13 10:06 pm SE 12.0 15.9----30.09- 72.9 76.5----
2024-04-13 10:00 pm SE 13.0 17.1----30.09+0.00 72.9 76.5----
2024-04-13 09:54 pmESE 12.0 15.0----30.09- 72.9 76.5----
2024-04-13 09:48 pmESE 11.1 15.0----30.09- 72.9 76.5----
2024-04-13 09:42 pmESE 12.0 15.0----30.09- 72.9 76.5----
2024-04-13 09:36 pmESE 13.0 17.1----30.09- 72.9 76.5----
2024-04-13 09:30 pmESE 12.0 15.9----30.09- 72.9 76.5----
2024-04-13 09:24 pmESE 11.1 17.1----30.09- 72.9 76.5----
2024-04-13 09:18 pmESE 11.1 17.1----30.09- 72.9 76.5----
2024-04-13 09:12 pmESE 12.0 18.1----30.09- 72.9 76.5----
2024-04-13 09:06 pmESE 12.0 17.1----30.08- 73.0 76.5----
2024-04-13 09:00 pmESE 14.0 19.0----30.08-0.01 73.0 76.5----
2024-04-13 08:54 pmESE 13.0 19.0----30.08- 73.0 76.5----
2024-04-13 08:48 pmESE 13.0 19.0----30.07- 73.0 76.5----
2024-04-13 08:42 pmESE 14.0 19.0----30.07- 73.0 76.5----
2024-04-13 08:36 pmESE 13.0 17.1----30.08- 73.0 76.5----
2024-04-13 08:30 pmESE 13.0 17.1----30.08- 73.0 76.5----
2024-04-13 08:24 pmESE 14.0 20.0----30.08- 73.0 76.5----
2024-04-13 08:18 pmESE 12.0 19.0----30.07- 73.0 76.5----
2024-04-13 08:12 pmESE 13.0 18.1----30.07- 73.2 76.5----
2024-04-13 08:06 pmESE 15.0 18.1----30.07- 73.0 76.5----
2024-04-13 08:00 pmESE 13.0 19.0----30.07-0.04 73.2 76.5----
2024-04-13 07:54 pmESE 12.0 15.0----30.07- 73.2 76.5----
2024-04-13 07:48 pmESE 11.1 18.1----30.08- 73.4 76.5----
2024-04-13 07:42 pmESE 12.0 17.1----30.08- 73.4 76.3----
2024-04-13 07:36 pmESE 13.0 17.1----30.08- 73.6 76.3----
2024-04-13 07:30 pmESE 11.1 15.9----30.09- 73.6 76.3----
2024-04-13 07:24 pmESE 13.0 18.1----30.08- 73.6 76.3----
2024-04-13 07:18 pm-------30.08- 73.6 76.3----
2024-04-13 07:12 pm-------30.08- 73.8 76.3----
2024-04-13 07:06 pm-------30.09- 74.1 76.3----
2024-04-13 07:00 pm-------30.09-0.02 73.9 76.3----
2024-04-13 06:54 pm-------30.09- 74.1 76.3----
2024-04-13 06:48 pmESE 15.0 20.0----30.09- 74.1 76.3----
2024-04-13 06:42 pmESE 15.0 19.0----30.09- 74.1 76.3----
2024-04-13 06:36 pmESE 14.0 17.1----30.09- 74.3 76.3----
2024-04-13 06:30 pmESE 15.9 20.0----30.09- 74.3 76.3----
2024-04-13 06:24 pmESE 13.0 19.0----30.09- 74.8 76.3----
2024-04-13 06:18 pmESE 15.0 18.1----30.09- 74.5 76.3----
2024-04-13 06:00 pmESE 14.0 19.0----30.09-0.04 75.2 76.3----
2024-04-13 05:54 pmESE 15.9 20.0----30.09- 74.7 76.3----
2024-04-13 05:48 pmESE 12.0 20.0----30.09- 75.2-----
2024-04-13 05:42 pmESE 15.0 21.0----30.10- 75.0-----
2024-04-13 05:36 pmESE 13.0 18.1----30.10- 75.2-----
2024-04-13 05:30 pmESE 13.0 19.0----30.10- 75.0 76.3----
2024-04-13 05:24 pmESE 15.9 21.0----30.10- 74.7 76.3----
2024-04-13 05:18 pmESE 13.0 18.1----30.10- 75.4 76.3----
2024-04-13 05:12 pmESE 13.0 19.0----30.11- 75.4 76.3----
2024-04-13 05:06 pmESE 14.0 20.0----30.11- 74.8 76.5----
2024-04-13 05:00 pmESE 13.0 22.0----30.11-0.07 75.6 76.5----
2024-04-13 04:54 pmESE 15.9 20.0----30.11- 74.8 76.5----
2024-04-13 04:48 pmESE 14.0 17.1----30.11- 75.6 76.5----
2024-04-13 04:42 pmESE 15.9 19.0----30.11- 75.2 76.5----
2024-04-13 04:36 pmESE 14.0 17.1----30.11- 75.4 76.5----
2024-04-13 04:30 pmESE 13.0 19.0----30.11- 75.9 76.5----
2024-04-13 04:24 pmESE 14.0 21.0----30.11- 75.7 76.5----
2024-04-13 04:18 pmESE 15.0 18.1----30.11- 75.4 76.5----
2024-04-13 04:12 pmESE 13.0 20.0----30.11- 75.9 76.5----
2024-04-13 04:06 pm E 17.1 21.0----30.11- 75.0 76.5----
2024-04-13 04:00 pmESE 18.1 21.0----30.11-0.09 75.0 76.3----
2024-04-13 03:54 pmESE 17.1 20.0----30.11- 75.0 76.3----
2024-04-13 03:48 pm--------- 75.4 76.6----
2024-04-13 03:42 pm--------- 75.7 76.6----
2024-04-13 03:36 pm--------- 75.4 76.6----
2024-04-13 03:30 pm E 17.1 21.0----30.12-- 76.6----
2024-04-13 03:24 pm E 15.9 19.0----30.13-- 76.6----
2024-04-13 03:18 pm E 15.0 19.0----30.13- 74.8 76.6----
2024-04-13 03:12 pm E 15.0 20.0----30.13- 74.8 76.5----
2024-04-13 03:06 pm E 15.0 19.0----30.13- 74.7 76.3----
2024-04-13 03:00 pm E 15.9 19.0----30.13-0.08 74.1 76.3----
2024-04-13 02:54 pm E 13.0 19.0----30.14- 74.7 76.3----
2024-04-13 02:48 pm E 13.0 17.1----30.14- 75.0 76.5----
2024-04-13 02:42 pmESE 15.0 18.1----30.14- 75.0 76.5----
2024-04-13 02:36 pmESE 17.1 19.0----30.15- 74.7 76.5----
2024-04-13 02:30 pm E 13.0 17.1----30.15- 75.2 76.6----
2024-04-13 02:24 pmESE 13.0 17.1----30.16- 75.6 76.6----
2024-04-13 02:18 pm E 14.0 18.1----30.16- 75.6 76.6----
2024-04-13 02:12 pmESE 13.0 15.9----30.16- 75.0 76.5----
2024-04-13 02:06 pmESE 12.0 19.0----30.17- 75.4 76.5----
2024-04-13 02:00 pmESE 12.0 17.1----30.17-0.04 75.4 76.6----
2024-04-13 01:54 pmESE 11.1 17.1----30.17- 76.1 76.6----
2024-04-13 01:48 pmESE 12.0 20.0----30.18-- 76.8----
2024-04-13 01:42 pmESE 12.0 18.1----30.18-- 77.2----
2024-04-13 01:36 pmESE 13.0 17.1----30.19-- 77.2----
2024-04-13 01:30 pmESE 12.0 17.1----30.19- 75.6 76.3----
2024-04-13 01:24 pmESE 12.0 14.0----30.19- 75.2 76.3----
2024-04-13 01:18 pm-------30.19-- 76.3----
2024-04-13 01:12 pm-------30.20-- 76.3----
2024-04-13 01:06 pm-------30.20-- 75.9----
2024-04-13 01:00 pmESE 9.9 15.9----30.20+0.00 75.9 75.7----
2024-04-13 12:54 pm E 12.0 15.0----30.20- 75.0 75.6----
2024-04-13 12:48 pmESE 11.1 15.9----30.21-- 75.2----
2024-04-13 12:42 pmESE 12.0 15.0----30.21-- 75.0----
2024-04-13 12:36 pm SE 9.9 15.0----30.21-- 75.0----
2024-04-13 12:30 pmESE 12.0 15.9----30.22- 74.8 74.8----
2024-04-13 12:24 pmESE 8.9 15.0----30.22- 75.9 74.8----
2024-04-13 12:18 pmESE 8.9 15.9----30.21- 75.9 74.7----
2024-04-13 12:12 pmESE 11.1 15.9----30.21- 75.9 74.7----
2024-04-13 12:06 pmESE 12.0 15.9----30.21- 75.6 74.7----
2024-04-13 12:00 pmESE 11.1 15.0----30.21+0.04 75.6 74.5----
2024-04-13 11:54 am SE 12.0 17.1----30.21- 75.0 74.5----
2024-04-13 11:48 amESE 12.0 17.1----30.21- 75.0 74.5----
2024-04-13 11:42 amESE 14.0 17.1----30.22- 74.5 74.3----
2024-04-13 11:36 amESE 11.1 18.1----30.22- 74.8 74.3----
2024-04-13 11:30 amESE 13.0 15.9----30.22-- 74.3----
2024-04-13 11:24 amESE 12.0 15.9----30.21-- 74.1----
2024-04-13 11:18 amESE 11.1 15.0----30.22-- 74.1----
2024-04-13 11:12 amESE 12.0 15.0----30.22-- 74.1----
2024-04-13 11:06 amESE 12.0 17.1----30.22-- 73.9----
2024-04-13 11:00 amESE 12.0 17.1----30.22+0.03 74.7 73.9----
2024-04-13 10:54 amESE 12.0 15.9----30.22- 74.3 73.9----
2024-04-13 10:48 am-------30.22-- 73.9----
2024-04-13 10:42 am-------30.22-- 73.9----
2024-04-13 10:36 am-------30.22-- 73.9----
2024-04-13 10:30 amESE 12.0 15.0----30.21- 74.5 73.8----
2024-04-13 10:24 amESE 12.0 17.1----30.21- 74.1 73.8----
2024-04-13 10:18 amESE 12.0 15.9----30.20- 73.9 73.8----
2024-04-13 10:12 amESE 12.0 17.1----30.20- 73.9 73.8----
2024-04-13 10:06 amESE 14.0 15.9----30.20- 73.4 73.8----
2024-04-13 10:00 amESE 11.1 15.0----30.20- 74.1 73.8----
2024-04-13 09:54 amESE 11.1 15.0----30.20- 74.3 73.8----
2024-04-13 09:48 amESE 12.0 15.0----30.20- 74.1 73.8----
2024-04-13 09:42 amESE 9.9 15.9----30.19- 74.1 73.8----
2024-04-13 09:36 amESE 11.1 15.9----30.19- 73.9 73.8----
2024-04-13 09:30 amESE 14.0 18.1----30.19- 73.6 73.8----
2024-04-13 09:24 am E 13.0 18.1----30.19- 73.8 73.8----
2024-04-13 09:18 amESE 14.0 18.1----30.18- 73.4 73.8----
2024-04-13 09:12 amESE 12.0 18.1----30.18- 73.6 73.8----
2024-04-13 09:06 amESE 11.1 15.9----30.18- 73.8 73.8----
2024-04-13 09:00 am E 11.1 15.0----30.17+0.03 73.6 73.8----
2024-04-13 08:54 amESE 9.9 14.0----30.17- 73.8 73.8----
2024-04-13 08:48 amESE 14.0 17.1----30.17- 73.2 73.8----
2024-04-13 08:42 amESE 9.9 15.0----30.17- 73.4 73.8----
2024-04-13 08:36 amESE 8.9 13.0----30.17- 73.2 73.8----
2024-04-13 08:30 amESE 8.9 14.0----30.17- 72.9 73.8----
2024-04-13 08:24 am E 11.1 12.0----30.18- 72.7 73.9----
2024-04-13 08:18 amESE 8.0 11.1----30.18- 72.7 73.9----
2024-04-13 08:12 amESE 8.9 12.0----30.19- 72.7 73.9----
2024-04-13 08:06 amESE 8.9 12.0----30.19- 72.7 73.9----
2024-04-13 08:00 amESE 8.0 11.1----30.19+0.04- 73.9----
2024-04-13 07:54 amESE 7.0 11.1----30.18-- 73.9----
2024-04-13 07:48 amESE 7.0 9.9----30.18- 72.1 73.9----
2024-04-13 07:42 amESE 8.0 13.0----30.17- 72.0 73.9----
2024-04-13 07:36 amESE 8.0 11.1----30.17- 71.8 74.1----
2024-04-13 07:30 amESE 7.0 11.1----30.18- 71.8 74.1----
2024-04-13 07:24 amESE 8.9 11.1----30.18- 71.8 74.1----
2024-04-13 07:18 amESE 7.0 9.9----30.18- 71.8 74.1----
2024-04-13 07:12 amESE 8.0 9.9----30.18- 71.8 74.1----
2024-04-13 07:06 amESE 7.0 9.9----30.17- 71.8 74.1----
2024-04-13 07:00 amESE 7.0 11.1------- 74.1----
2024-04-13 06:54 amESE 7.0 13.0------- 74.1----
2024-04-13 06:48 amESE 8.0 12.0----30.17-- 74.1----
2024-04-13 06:42 amESE 8.0 9.9----30.17-- 74.1----
2024-04-13 06:36 amESE 8.0 9.9----30.17-- 74.1----
2024-04-13 06:30 amESE 7.0 9.9----30.17-------
2024-04-13 06:24 amESE 7.0 9.9----30.16-------
2024-04-13 06:18 am-------30.16- 71.8 74.1----
2024-04-13 06:12 am-------30.15- 71.8 74.1----
2024-04-13 06:06 am-------30.15- 71.8 74.1----
2024-04-13 06:00 amESE 8.0 9.9----30.15-0.04 71.8 74.1----
2024-04-13 05:54 amESE 8.0 11.1----30.15- 71.8 74.1----
2024-04-13 05:48 amESE 8.0 11.1----30.15-- 74.1----
2024-04-13 05:42 amESE 7.0 13.0----30.15-- 74.1----
2024-04-13 05:36 amESE 8.0 9.9----30.15-- 74.1----
2024-04-13 05:30 amESE 8.0 12.0----30.15- 71.8-----
2024-04-13 05:24 amESE 8.9 12.0----30.14- 71.8-----
2024-04-13 05:18 am-------30.15- 71.8 74.3----
2024-04-13 05:12 am-------30.14- 71.6 74.3----
2024-04-13 05:06 am-------30.15- 71.8 74.3----
2024-04-13 05:00 am SE 8.0 13.0----30.15-0.05- 74.3----
2024-04-13 04:54 amESE 8.0 13.0----30.15-- 74.3----